Location: ??????????
(54.4061°N, 22.6114°E)
Time: 00:10:49
(UTC+00:00)

Cosmos 2297 Rocket - Pass Details

Date: 23 October 2019
Orbit: 840 x 842 km, 71.0° (Epoch: 20 November)

Event Time Altitude Azimuth Distance (km) Brightness Sun altitude
Rises 17:27:54 0° 317° (NW) 3,407 6.2 -20.0°
Reaches altitude 10° 17:31:13 10° 336° (NNW) 2,471 5.0 -20.5°
Maximum altitude 17:34:59 18° 18° (NNE) 1,977 4.0 -21.1°
Enters shadow 17:36:28 16° 37° (NE) 2,063 4.0 -21.3°
